| time (UTC) | temp C | wind direction | speed KPH | gust KPH | rain 1hr cm | rain 24hr cm | rain mn cm | humidity % | barometer mb |
| 20260503023521 | 7 | 215 | 0.0 | 0.0 | 0.00 | 0.00 | 0.00 | 38 | 1026.5 |
| 20260503023018 | 7 | 209 | 0.0 | 0.0 | 0.00 | 0.00 | 0.00 | 38 | 1026.5 |
| 20260503022514 | 7 | 214 | 0.0 | 0.0 | 0.00 | 0.00 | 0.00 | 36 | 1026.4 |
| 20260503022009 | 7 | 214 | 0.0 | 0.0 | 0.00 | 0.00 | 0.00 | 36 | 1026.4 |
| 20260503021506 | 8 | 212 | 0.0 | 0.0 | 0.00 | 0.00 | 0.00 | 32 | 1026.5 |
| 20260503021003 | 8 | 201 | 1.6 | 1.6 | 0.00 | 0.00 | 0.00 | 32 | 1026.4 |
| 20260503020500 | 8 | 179 | 1.6 | 1.6 | 0.00 | 0.00 | 0.00 | 32 | 1026.2 |
| 20260503015957 | 8 | 220 | 0.0 | 0.0 | 0.00 | 0.00 | 0.00 | 32 | 1026.4 |
| 20260503015454 | 8 | 213 | 0.0 | 0.0 | 0.00 | 0.00 | 0.00 | 31 | 1026.1 |
| 20260503014950 | 9 | 201 | 1.6 | 1.6 | 0.00 | 0.00 | 0.00 | 33 | 1026.0 |
| 20260503014447 | 10 | 221 | 0.0 | 0.0 | 0.00 | 0.00 | 0.00 | 34 | 1025.9 |
| 20260503013945 | 10 | 221 | 0.0 | 0.0 | 0.00 | 0.00 | 0.00 | 30 | 1026.0 |
| 20260503013442 | 11 | 215 | 0.0 | 0.0 | 0.00 | 0.00 | 0.00 | 31 | 1026.1 |
| 20260503012939 | 11 | 218 | 0.0 | 0.0 | 0.00 | 0.00 | 0.00 | 27 | 1026.0 |
| 20260503012437 | 12 | 190 | 1.6 | 1.6 | 0.00 | 0.00 | 0.00 | 24 | 1025.9 |
| 20260503011933 | 12 | 149 | 3.2 | 3.2 | 0.00 | 0.00 | 0.00 | 25 | 1025.9 |
| 20260503011430 | 13 | 224 | 0.0 | 0.0 | 0.00 | 0.00 | 0.00 | 23 | 1025.5 |
| 20260503010927 | 13 | 315 | 4.8 | 4.8 | 0.00 | 0.00 | 0.00 | 23 | 1025.5 |
| 20260503010424 | 13 | 155 | 1.6 | 3.2 | 0.00 | 0.00 | 0.00 | 24 | 1025.4 |
| 20260503005921 | 13 | 232 | 0.0 | 0.0 | 0.00 | 0.00 | 0.00 | 23 | 1025.4 |
| 20260503005418 | 14 | 0 | 4.8 | 4.8 | 0.00 | 0.00 | 0.00 | 23 | 1025.5 |
| 20260503004915 | 15 | 359 | 3.2 | 3.2 | 0.00 | 0.00 | 0.00 | 23 | 1025.4 |
| 20260503004412 | 15 | 31 | 3.2 | 4.8 | 0.00 | 0.00 | 0.00 | 23 | 1025.6 |
| 20260503003909 | 15 | 164 | 6.4 | 8.0 | 0.00 | 0.00 | 0.00 | 22 | 1025.5 |
| 20260503003405 | 15 | 231 | 0.0 | 0.0 | 0.00 | 0.00 | 0.00 | 22 | 1025.5 |
| 20260503002903 | 15 | 203 | 1.6 | 3.2 | 0.00 | 0.00 | 0.00 | 21 | 1025.4 |
| 20260503002400 | 15 | 205 | 3.2 | 3.2 | 0.00 | 0.00 | 0.00 | 21 | 1025.6 |
| 20260503001856 | 15 | 6 | 11.3 | 14.5 | 0.00 | 0.00 | 0.00 | 20 | 1025.9 |
| 20260503001353 | 15 | 156 | 1.6 | 3.2 | 0.00 | 0.00 | 0.00 | 21 | 1025.5 |
| 20260503000851 | 15 | 154 | 3.2 | 3.2 | 0.00 | 0.00 | 0.00 | 21 | 1025.5 |
| 20260503000348 | 15 | 172 | 4.8 | 4.8 | 0.00 | 0.00 | 0.00 | 22 | 1025.5 |
| 20260502235845 | 14 | 125 | 4.8 | 8.0 | 0.00 | 0.00 | 0.00 | 21 | 1025.7 |
| 20260502235342 | 14 | 187 | 3.2 | 3.2 | 0.00 | 0.00 | 0.00 | 21 | 1025.9 |
| 20260502234838 | 15 | 204 | 3.2 | 3.2 | 0.00 | 0.00 | 0.00 | 22 | 1025.5 |
| 20260502234336 | 15 | 222 | 0.0 | 1.6 | 0.00 | 0.00 | 0.00 | 21 | 1025.6 |
| 20260502233832 | 16 | 142 | 1.6 | 1.6 | 0.00 | 0.00 | 0.00 | 21 | 1025.9 |
| 20260502233328 | 15 | 195 | 3.2 | 4.8 | 0.00 | 0.00 | 0.00 | 20 | 1025.6 |
| 20260502232825 | 15 | 132 | 3.2 | 4.8 | 0.00 | 0.00 | 0.00 | 21 | 1025.6 |
| 20260502232321 | 16 | 97 | 9.7 | 11.3 | 0.00 | 0.00 | 0.00 | 20 | 1025.5 |
| 20260502231818 | 16 | 54 | 3.2 | 4.8 | 0.00 | 0.00 | 0.00 | 20 | 1025.7 |
| 20260502231316 | 16 | 54 | 4.8 | 4.8 | 0.00 | 0.00 | 0.00 | 21 | 1025.5 |
| 20260502230814 | 17 | 150 | 1.6 | 3.2 | 0.00 | 0.00 | 0.00 | 21 | 1025.9 |
| 20260502230312 | 15 | 284 | 3.2 | 3.2 | 0.00 | 0.00 | 0.00 | 20 | 1025.5 |
| 20260502225809 | 16 | 166 | 1.6 | 3.2 | 0.00 | 0.00 | 0.00 | 21 | 1025.6 |
| 20260502225305 | 16 | 281 | 8.0 | 9.7 | 0.00 | 0.00 | 0.00 | 21 | 1025.5 |
| 20260502224801 | 16 | 266 | 11.3 | 12.9 | 0.00 | 0.00 | 0.00 | 21 | 1025.5 |
| 20260502224252 | 17 | 238 | 3.2 | 3.2 | 0.00 | 0.00 | 0.00 | 22 | 1025.7 |
| 20260502223750 | 17 | 168 | 4.8 | 9.7 | 0.00 | 0.00 | 0.00 | 20 | 1025.6 |
| 20260502223248 | 16 | 238 | 3.2 | 3.2 | 0.00 | 0.00 | 0.00 | 22 | 1025.7 |
| 20260502222745 | 16 | 106 | 3.2 | 4.8 | 0.00 | 0.00 | 0.00 | 22 | 1025.7 |
| 20260502222242 | 16 | 13 | 11.3 | 11.3 | 0.00 | 0.00 | 0.00 | 22 | 1025.9 |
| 20260502221737 | 16 | 102 | 6.4 | 9.7 | 0.00 | 0.00 | 0.00 | 21 | 1026.0 |
| 20260502221234 | 16 | 336 | 8.0 | 11.3 | 0.00 | 0.00 | 0.00 | 22 | 1026.0 |
| 20260502220730 | 15 | 35 | 3.2 | 4.8 | 0.00 | 0.00 | 0.00 | 23 | 1026.1 |
| 20260502220227 | 17 | 12 | 16.1 | 24.1 | 0.00 | 0.00 | 0.00 | 22 | 1026.1 |
| 20260502215718 | 17 | 275 | 6.4 | 8.0 | 0.00 | 0.00 | 0.00 | 22 | 1025.9 |
| 20260502215215 | 17 | 201 | 8.0 | 12.9 | 0.00 | 0.00 | 0.00 | 22 | 1026.1 |
| 20260502214713 | 17 | 199 | 0.0 | 1.6 | 0.00 | 0.00 | 0.00 | 23 | 1026.4 |
| 20260502214210 | 16 | 223 | 4.8 | 4.8 | 0.00 | 0.00 | 0.00 | 25 | 1026.4 |
| 20260502213707 | 17 | 215 | 3.2 | 3.2 | 0.00 | 0.00 | 0.00 | 23 | 1026.6 |
| 20260502213204 | 16 | 133 | 1.6 | 8.0 | 0.00 | 0.00 | 0.00 | 24 | 1026.5 |
| 20260502212702 | 15 | 180 | 3.2 | 3.2 | 0.00 | 0.00 | 0.00 | 25 | 1026.8 |
| 20260502212200 | 17 | 149 | 6.4 | 9.7 | 0.00 | 0.00 | 0.00 | 24 | 1026.8 |
| 20260502211656 | 16 | 128 | 3.2 | 4.8 | 0.00 | 0.00 | 0.00 | 25 | 1026.8 |
| 20260502211153 | 16 | 241 | 0.0 | 0.0 | 0.00 | 0.00 | 0.00 | 26 | 1026.8 |
| 20260502210650 | 15 | 256 | 1.6 | 3.2 | 0.00 | 0.00 | 0.00 | 25 | 1027.0 |
| 20260502210147 | 15 | 178 | 6.4 | 8.0 | 0.00 | 0.00 | 0.00 | 26 | 1027.0 |
| 20260502205644 | 16 | 62 | 3.2 | 3.2 | 0.00 | 0.00 | 0.00 | 26 | 1027.1 |
| 20260502205141 | 16 | 230 | 6.4 | 8.0 | 0.00 | 0.00 | 0.00 | 27 | 1026.9 |
| 20260502204637 | 16 | 223 | 0.0 | 1.6 | 0.00 | 0.00 | 0.00 | 28 | 1027.6 |
| 20260502204135 | 16 | 140 | 6.4 | 8.0 | 0.00 | 0.00 | 0.00 | 26 | 1027.3 |
| 20260502203632 | 15 | 267 | 1.6 | 1.6 | 0.00 | 0.00 | 0.00 | 28 | 1027.5 |
| 20260502203130 | 15 | 225 | 3.2 | 4.8 | 0.00 | 0.00 | 0.00 | 29 | 1027.6 |
| 20260502202625 | 16 | 206 | 8.0 | 12.9 | 0.00 | 0.00 | 0.00 | 28 | 1027.5 |
| 20260502202123 | 15 | 217 | 0.0 | 1.6 | 0.00 | 0.00 | 0.00 | 29 | 1027.5 |
| 20260502201619 | 15 | 77 | 11.3 | 14.5 | 0.00 | 0.00 | 0.00 | 29 | 1027.3 |
| 20260502201110 | 13 | 40 | 4.8 | 4.8 | 0.00 | 0.00 | 0.00 | 30 | 1027.6 |
| 20260502200606 | 13 | 38 | 11.3 | 14.5 | 0.00 | 0.00 | 0.00 | 31 | 1027.5 |
| 20260502200104 | 14 | 335 | 4.8 | 4.8 | 0.00 | 0.00 | 0.00 | 31 | 1027.3 |
| 20260502195601 | 15 | 252 | 1.6 | 4.8 | 0.00 | 0.00 | 0.00 | 31 | 1027.6 |
| 20260502195057 | 15 | 231 | 8.0 | 11.3 | 0.00 | 0.00 | 0.00 | 31 | 1027.6 |
| 20260502194554 | 14 | 201 | 4.8 | 4.8 | 0.00 | 0.00 | 0.00 | 31 | 1027.8 |
| 20260502194050 | 15 | 157 | 3.2 | 4.8 | 0.00 | 0.00 | 0.00 | 32 | 1027.6 |
| 20260502193548 | 15 | 45 | 8.0 | 9.7 | 0.00 | 0.00 | 0.00 | 30 | 1027.9 |
| 20260502193044 | 15 | 136 | 4.8 | 8.0 | 0.00 | 0.00 | 0.00 | 31 | 1027.8 |
| 20260502192540 | 15 | 67 | 6.4 | 11.3 | 0.00 | 0.00 | 0.00 | 31 | 1027.9 |
| 20260502192038 | 15 | 127 | 8.0 | 11.3 | 0.00 | 0.00 | 0.00 | 30 | 1027.8 |
| 20260502191534 | 15 | 209 | 3.2 | 4.8 | 0.00 | 0.00 | 0.00 | 29 | 1027.8 |
| 20260502191032 | 14 | 212 | 4.8 | 4.8 | 0.00 | 0.00 | 0.00 | 29 | 1027.9 |
| 20260502190530 | 15 | 333 | 12.9 | 20.9 | 0.00 | 0.00 | 0.00 | 30 | 1027.9 |
| 20260502190026 | 13 | 322 | 8.0 | 9.7 | 0.00 | 0.00 | 0.00 | 29 | 1027.9 |
| 20260502185521 | 14 | 136 | 8.0 | 9.7 | 0.00 | 0.00 | 0.00 | 27 | 1028.1 |
| 20260502185018 | 13 | 42 | 9.7 | 11.3 | 0.00 | 0.00 | 0.00 | 28 | 1028.1 |
| 20260502184514 | 14 | 135 | 6.4 | 8.0 | 0.00 | 0.00 | 0.00 | 25 | 1028.0 |
| 20260502184010 | 13 | 299 | 4.8 | 8.0 | 0.00 | 0.00 | 0.00 | 25 | 1028.1 |
| 20260502183501 | 13 | 231 | 8.0 | 9.7 | 0.00 | 0.00 | 0.00 | 25 | 1028.3 |
| 20260502182956 | 13 | 277 | 4.8 | 4.8 | 0.00 | 0.00 | 0.00 | 24 | 1028.6 |
| 20260502182452 | 13 | 141 | 4.8 | 4.8 | 0.00 | 0.00 | 0.00 | 25 | 1028.3 |
| 20260502181948 | 13 | 281 | 9.7 | 11.3 | 0.00 | 0.00 | 0.00 | 25 | 1028.5 |
| 20260502181446 | 14 | 5 | 4.8 | 4.8 | 0.00 | 0.00 | 0.00 | 24 | 1028.6 |
| 20260502180945 | 14 | 321 | 4.8 | 8.0 | 0.00 | 0.00 | 0.00 | 26 | 1028.5 |
| 20260502180442 | 13 | 172 | 3.2 | 3.2 | 0.00 | 0.00 | 0.00 | 26 | 1028.6 |
| 20260502170401 | 12 | 158 | 3.2 | 4.8 | 0.00 | 0.00 | 0.00 | 28 | 1029.3 |
| 20260502164347 | 11 | 34 | 4.8 | 4.8 | 0.00 | 0.00 | 0.00 | 32 | 1029.1 |
| 20260502163843 | 11 | 292 | 4.8 | 8.0 | 0.00 | 0.00 | 0.00 | 31 | 1029.3 |
| 20260502163340 | 11 | 17 | 6.4 | 8.0 | 0.00 | 0.00 | 0.00 | 30 | 1029.4 |
| 20260502162838 | 11 | 12 | 12.9 | 14.5 | 0.00 | 0.00 | 0.00 | 30 | 1029.1 |
| 20260502162334 | 10 | 164 | 4.8 | 8.0 | 0.00 | 0.00 | 0.00 | 31 | 1029.3 |
| 20260502161831 | 10 | 25 | 6.4 | 8.0 | 0.00 | 0.00 | 0.00 | 32 | 1029.1 |
| 20260502161327 | 10 | 284 | 8.0 | 9.7 | 0.00 | 0.00 | 0.00 | 33 | 1029.1 |
| 20260502160825 | 11 | 174 | 0.0 | 0.0 | 0.00 | 0.00 | 0.00 | 31 | 1029.1 |
| 20260502160324 | 10 | 176 | 3.2 | 3.2 | 0.00 | 0.00 | 0.00 | 34 | 1029.4 |
| 20260502152259 | 9 | 114 | 4.8 | 8.0 | 0.00 | 0.00 | 0.00 | 32 | 1029.5 |
| 20260502151756 | 8 | 165 | 0.0 | 1.6 | 0.00 | 0.00 | 0.00 | 33 | 1030.0 |
| 20260502151253 | 8 | 204 | 1.6 | 1.6 | 0.00 | 0.00 | 0.00 | 34 | 1029.8 |
| 20260502150751 | 8 | 37 | 1.6 | 3.2 | 0.00 | 0.00 | 0.00 | 33 | 1029.8 |
| 20260502150247 | 8 | 19 | 9.7 | 11.3 | 0.00 | 0.00 | 0.00 | 32 | 1029.5 |
| 20260502130636 | 1 | 194 | 0.0 | 0.0 | 0.00 | 0.00 | 0.00 | 66 | 1029.9 |
| 20260502130133 | 0 | 197 | 0.0 | 0.0 | 0.00 | 0.00 | 0.00 | 72 | 1029.7 |
| 20260502123620 | -2 | 210 | 0.0 | 0.0 | 0.00 | 0.00 | 0.00 | 81 | 1029.7 |
| 20260502123115 | -3 | 206 | 0.0 | 0.0 | 0.00 | 0.00 | 0.00 | 79 | 1029.5 |
| 20260502122612 | -3 | 222 | 0.0 | 0.0 | 0.00 | 0.00 | 0.00 | 79 | 1029.4 |
| 20260502122109 | -3 | 207 | 0.0 | 1.6 | 0.00 | 0.00 | 0.00 | 79 | 1029.5 |
| 20260502121607 | -3 | 201 | 0.0 | 1.6 | 0.00 | 0.00 | 0.00 | 79 | 1029.3 |
| 20260502121105 | -3 | 216 | 0.0 | 0.0 | 0.00 | 0.00 | 0.00 | 79 | 1029.3 |
| 20260502120600 | -3 | 197 | 0.0 | 0.0 | 0.00 | 0.00 | 0.00 | 81 | 1029.5 |
| 20260502115556 | -3 | 212 | 0.0 | 0.0 | 0.00 | 0.00 | 0.00 | 79 | 1029.4 |
| 20260502115051 | -3 | 203 | 0.0 | 1.6 | 0.00 | 0.00 | 0.00 | 79 | 1029.3 |
| 20260502114548 | -3 | 210 | 0.0 | 0.0 | 0.00 | 0.00 | 0.00 | 80 | 1029.3 |
| 20260502114044 | -3 | 210 | 0.0 | 0.0 | 0.00 | 0.00 | 0.00 | 81 | 1029.3 |
| 20260502113542 | -3 | 196 | 1.6 | 1.6 | 0.00 | 0.00 | 0.00 | 81 | 1029.1 |
| 20260502113041 | -3 | 201 | 0.0 | 0.0 | 0.00 | 0.00 | 0.00 | 81 | 1029.1 |
| 20260502112538 | -3 | 218 | 0.0 | 0.0 | 0.00 | 0.00 | 0.00 | 80 | 1029.5 |
| 20260502112036 | -3 | 215 | 0.0 | 0.0 | 0.00 | 0.00 | 0.00 | 81 | 1029.3 |
| 20260502111532 | -3 | 187 | 1.6 | 1.6 | 0.00 | 0.00 | 0.00 | 80 | 1029.3 |
| 20260502111030 | -3 | 212 | 0.0 | 0.0 | 0.00 | 0.00 | 0.00 | 80 | 1029.1 |
| 20260502110527 | -3 | 207 | 0.0 | 0.0 | 0.00 | 0.00 | 0.00 | 81 | 1029.1 |
| 20260502110025 | -3 | 222 | 0.0 | 0.0 | 0.00 | 0.00 | 0.00 | 80 | 1029.5 |
| 20260502105522 | -3 | 186 | 1.6 | 1.6 | 0.00 | 0.00 | 0.00 | 80 | 1029.1 |
| 20260502105020 | -3 | 209 | 0.0 | 0.0 | 0.00 | 0.00 | 0.00 | 79 | 1029.3 |
| 20260502104516 | -2 | 245 | 0.0 | 0.0 | 0.00 | 0.00 | 0.00 | 78 | 1029.3 |
| 20260502104014 | -3 | 212 | 0.0 | 0.0 | 0.00 | 0.00 | 0.00 | 79 | 1029.1 |
| 20260502103511 | -2 | 225 | 0.0 | 0.0 | 0.00 | 0.00 | 0.00 | 78 | 1029.3 |
| 20260502103010 | -2 | 203 | 0.0 | 1.6 | 0.00 | 0.00 | 0.00 | 81 | 1029.1 |
| 20260502102505 | -2 | 211 | 0.0 | 0.0 | 0.00 | 0.00 | 0.00 | 81 | 1029.1 |
| 20260502102003 | -2 | 222 | 0.0 | 0.0 | 0.00 | 0.00 | 0.00 | 78 | 1029.1 |
| 20260502101500 | -2 | 197 | 0.0 | 0.0 | 0.00 | 0.00 | 0.00 | 76 | 1029.4 |
| 20260502100959 | -2 | 175 | 3.2 | 3.2 | 0.00 | 0.00 | 0.00 | 77 | 1029.4 |
| 20260502100457 | -2 | 177 | 1.6 | 3.2 | 0.00 | 0.00 | 0.00 | 77 | 1029.3 |
| 20260502091431 | -2 | 196 | 1.6 | 1.6 | 0.00 | 0.00 | 0.00 | 80 | 1029.1 |
| 20260502090928 | -2 | 208 | 0.0 | 1.6 | 0.00 | 0.00 | 0.00 | 80 | 1029.0 |
| 20260502090425 | -2 | 199 | 0.0 | 1.6 | 0.00 | 0.00 | 0.00 | 81 | 1028.9 |
| 20260502071308 | -2 | 200 | 0.0 | 1.6 | 0.00 | 0.00 | 0.00 | 81 | 1029.3 |
| 20260502070807 | -1 | 218 | 0.0 | 0.0 | 0.00 | 0.00 | 0.00 | 80 | 1029.4 |
| 20260502070304 | -1 | 193 | 1.6 | 1.6 | 0.00 | 0.00 | 0.00 | 80 | 1029.8 |
| 20260502065803 | -1 | 180 | 1.6 | 1.6 | 0.00 | 0.00 | 0.00 | 80 | 1029.8 |
| 20260502065300 | -1 | 191 | 1.6 | 1.6 | 0.00 | 0.00 | 0.00 | 81 | 1029.7 |
| 20260502064758 | -1 | 185 | 1.6 | 1.6 | 0.00 | 0.00 | 0.00 | 82 | 1029.8 |
| 20260502064255 | -2 | 191 | 1.6 | 1.6 | 0.00 | 0.00 | 0.00 | 82 | 1029.7 |
| 20260502063753 | -1 | 201 | 0.0 | 1.6 | 0.00 | 0.00 | 0.00 | 83 | 1029.9 |
| 20260502063251 | -2 | 209 | 0.0 | 0.0 | 0.00 | 0.00 | 0.00 | 83 | 1029.7 |
| 20260502062748 | -2 | 174 | 1.6 | 3.2 | 0.00 | 0.00 | 0.00 | 82 | 1029.8 |
| 20260502062245 | -1 | 203 | 0.0 | 0.0 | 0.00 | 0.00 | 0.00 | 81 | 1029.8 |
| 20260502061744 | -2 | 204 | 0.0 | 0.0 | 0.00 | 0.00 | 0.00 | 81 | 1029.7 |
| 20260502061241 | -2 | 206 | 0.0 | 0.0 | 0.00 | 0.00 | 0.00 | 81 | 1029.7 |
| 20260502060736 | -2 | 209 | 0.0 | 0.0 | 0.00 | 0.00 | 0.00 | 81 | 1029.8 |
| 20260502060226 | -2 | 189 | 1.6 | 1.6 | 0.00 | 0.00 | 0.00 | 82 | 1029.7 |
| 20260502055725 | -1 | 214 | 0.0 | 0.0 | 0.00 | 0.13 | 0.13 | 81 | 1029.7 |
| 20260502055222 | -1 | 208 | 0.0 | 0.0 | 0.00 | 0.13 | 0.13 | 81 | 1029.8 |
| 20260502054721 | -1 | 196 | 1.6 | 1.6 | 0.00 | 0.13 | 0.13 | 82 | 1029.7 |
| 20260502054218 | -1 | 211 | 0.0 | 0.0 | 0.00 | 0.13 | 0.13 | 82 | 1029.9 |
| 20260502053715 | -1 | 193 | 1.6 | 1.6 | 0.00 | 0.13 | 0.13 | 81 | 1029.7 |
| 20260502053212 | -1 | 209 | 0.0 | 0.0 | 0.00 | 0.13 | 0.13 | 83 | 1029.5 |
| 20260502052710 | -1 | 217 | 0.0 | 0.0 | 0.00 | 0.13 | 0.13 | 81 | 1029.8 |
| 20260502052208 | -1 | 225 | 0.0 | 0.0 | 0.00 | 0.13 | 0.13 | 80 | 1029.7 |
| 20260502051701 | -1 | 201 | 1.6 | 1.6 | 0.00 | 0.13 | 0.13 | 80 | 1029.8 |
| 20260502051159 | -1 | 218 | 0.0 | 0.0 | 0.00 | 0.13 | 0.13 | 81 | 1029.5 |
| 20260502050655 | -1 | 208 | 1.6 | 1.6 | 0.00 | 0.13 | 0.13 | 81 | 1029.7 |
| 20260502050151 | -1 | 214 | 0.0 | 0.0 | 0.00 | 0.13 | 0.13 | 80 | 1029.7 |
| 20260502045647 | -1 | 192 | 0.0 | 0.0 | 0.00 | 0.13 | 0.13 | 78 | 1029.7 |
| 20260502045145 | -1 | 207 | 0.0 | 1.6 | 0.00 | 0.13 | 0.13 | 79 | 1029.5 |
| 20260502044641 | -1 | 203 | 1.6 | 1.6 | 0.00 | 0.13 | 0.13 | 79 | 1029.5 |
| 20260502044138 | -1 | 215 | 0.0 | 0.0 | 0.00 | 0.13 | 0.13 | 77 | 1029.4 |
| 20260502043635 | -1 | 186 | 1.6 | 1.6 | 0.00 | 0.13 | 0.13 | 77 | 1029.4 |
| 20260502043127 | -1 | 207 | 0.0 | 1.6 | 0.00 | 0.13 | 0.13 | 77 | 1029.5 |
| 20260502042626 | -1 | 207 | 0.0 | 1.6 | 0.00 | 0.13 | 0.13 | 78 | 1029.5 |
| 20260502042124 | -1 | 211 | 0.0 | 0.0 | 0.00 | 0.13 | 0.13 | 78 | 1029.3 |
| 20260502041621 | -1 | 217 | 0.0 | 0.0 | 0.00 | 0.13 | 0.13 | 78 | 1029.4 |
| 20260502041118 | -1 | 211 | 0.0 | 0.0 | 0.00 | 0.13 | 0.13 | 77 | 1029.5 |
| 20260502040615 | -1 | 197 | 0.0 | 1.6 | 0.00 | 0.13 | 0.13 | 77 | 1029.4 |
| 20260502040113 | 0 | 211 | 0.0 | 0.0 | 0.00 | 0.13 | 0.13 | 77 | 1029.4 |
| 20260502035608 | 0 | 205 | 0.0 | 0.0 | 0.00 | 0.13 | 0.13 | 76 | 1029.3 |
| 20260502035105 | 0 | 218 | 0.0 | 0.0 | 0.00 | 0.13 | 0.13 | 75 | 1029.0 |
| 20260502034603 | 0 | 209 | 0.0 | 0.0 | 0.00 | 0.13 | 0.13 | 75 | 1029.0 |
| 20260502034101 | 0 | 196 | 1.6 | 1.6 | 0.00 | 0.13 | 0.13 | 74 | 1028.8 |
| 20260502033559 | 0 | 218 | 0.0 | 0.0 | 0.00 | 0.13 | 0.13 | 74 | 1028.9 |
| 20260502033056 | 0 | 214 | 0.0 | 0.0 | 0.00 | 0.13 | 0.13 | 73 | 1028.5 |
| 20260502032552 | 0 | 210 | 0.0 | 0.0 | 0.00 | 0.13 | 0.13 | 72 | 1028.5 |
| 20260502032049 | 0 | 176 | 1.6 | 1.6 | 0.00 | 0.13 | 0.13 | 76 | 1028.6 |
| 20260502031547 | 0 | 204 | 0.0 | 0.0 | 0.00 | 0.13 | 0.13 | 70 | 1028.5 |
| 20260502031044 | 0 | 214 | 0.0 | 0.0 | 0.00 | 0.13 | 0.13 | 69 | 1028.6 |
| 20260502030544 | 0 | 206 | 0.0 | 1.6 | 0.00 | 0.13 | 0.13 | 69 | 1028.4 |
| 20260502030041 | 1 | 193 | 1.6 | 1.6 | 0.00 | 0.13 | 0.13 | 67 | 1028.1 |
| 20260502025538 | 1 | 196 | 0.0 | 1.6 | 0.00 | 0.13 | 0.13 | 68 | 1028.1 |
| 20260502025036 | 1 | 201 | 1.6 | 1.6 | 0.00 | 0.13 | 0.13 | 66 | 1028.3 |
| 20260502024533 | 1 | 200 | 0.0 | 0.0 | 0.00 | 0.13 | 0.13 | 65 | 1027.9 |
| 20260502024032 | 2 | 207 | 0.0 | 0.0 | 0.00 | 0.13 | 0.13 | 64 | 1028.0 |